AD8BW Weather Reports


time (UTC)temp
F
wind
direction
speed
knots
gust
knots
rain 1hr
in
rain 24hr
in
rain mn
in
humidity
%
barometer
mb
20260504215355 74 247 6.1 17.4 0.00 0.00 0.00 39 998.8
20260504214350 74 244 6.1 19.1 0.00 0.00 0.00 38 998.7
20260504213350 74 264 6.1 20.0 0.00 0.00 0.00 38 998.8
20260504212349 74 142 6.1 25.2 0.00 0.00 0.00 37 999.0
20260504211344 74 178 6.1 19.1 0.00 0.00 0.00 36 999.1
20260504210402 75 148 4.3 13.9 0.00 0.00 0.00 36 999.1
20260504205341 74 244 4.3 15.6 0.00 0.00 0.00 34 999.1
20260504204340 74 217 6.1 20.0 0.00 0.00 0.00 33 999.2
20260504203339 75 150 4.3 20.0 0.00 0.00 0.00 32 999.3
20260504202340 75 243 4.3 19.1 0.00 0.00 0.00 31 999.2
20260504201340 74 193 4.3 15.6 0.00 0.00 0.00 31 999.3
20260504200339 75 259 3.5 15.6 0.00 0.00 0.00 30 999.3
20260504195338 75 48 6.1 17.4 0.00 0.00 0.00 31 999.5
20260504194341 75 174 4.3 10.4 0.00 0.00 0.00 30 999.5
20260504193334 75 262 6.1 21.7 0.00 0.00 0.00 27 999.5
20260504192335 75 271 4.3 19.1 0.00 0.00 0.00 27 999.7
20260504191336 75 330 3.5 7.8 0.00 0.00 0.00 27 999.7
20260504190332 75 248 4.3 19.1 0.00 0.00 0.00 27 999.9
20260504185332 75 148 4.3 20.0 0.00 0.00 0.00 28 999.9
20260504184333 75 230 3.5 13.9 0.00 0.00 0.00 29 1000.1
20260504183332 75 253 4.3 15.6 0.00 0.00 0.00 30 1000.2
20260504182331 74 235 6.1 15.6 0.00 0.00 0.00 33 1000.1
20260504181330 74 257 6.1 19.1 0.00 0.00 0.00 33 1000.2
20260504180331 74 205 4.3 15.6 0.00 0.00 0.00 33 1000.5
20260504175332 73 269 4.3 17.4 0.00 0.00 0.00 34 1000.4
20260504174329 73 155 6.1 19.1 0.00 0.00 0.00 36 1000.7
20260504173332 73 190 4.3 15.6 0.00 0.00 0.00 37 1000.9
20260504172333 73 152 4.3 17.4 0.00 0.00 0.00 37 1000.9
20260504171332 72 254 4.3 13.9 0.00 0.00 0.00 36 1001.2
20260504170335 72 321 3.5 13.9 0.00 0.00 0.00 36 1001.3
20260504160339 68 170 3.5 10.4 0.00 0.00 0.00 48 1002.3
20260504150332 63 196 3.5 13.9 0.00 0.00 0.00 57 1002.8
20260504141332 60 252 3.5 7.8 0.00 0.00 0.00 63 1003.0
20260504140328 59 212 3.5 9.6 0.00 0.00 0.00 64 1003.1
20260504130324 55 240 3.5 12.2 0.00 0.00 0.00 71 1003.6
20260504120317 51 207 3.5 9.6 0.00 0.00 0.00 76 1003.7
20260504110313 48 166 1.7 4.3 0.00 0.00 0.00 80 1003.6
20260504100313 48 182 1.7 3.5 0.00 0.00 0.00 78 1003.6
20260504081308 49 182 1.7 12.2 0.00 0.00 0.00 74 1004.3
20260504080308 49 167 1.7 9.6 0.00 0.00 0.00 74 1004.3
20260504070300 49 165 1.7 4.3 0.00 0.00 0.00 72 1005.1
20260504050246 51 174 4.3 10.4 0.00 0.00 0.00 68 1006.5
20260504045249 51 186 3.5 9.6 0.00 0.00 0.00 67 1006.7
20260504044248 51 155 4.3 10.4 0.00 0.00 0.00 67 1006.8
20260504043246 51 175 3.5 10.4 0.00 0.00 0.00 66 1006.7
20260504042249 51 240 3.5 9.6 0.00 0.00 0.00 66 1006.8
20260504041247 51 159 6.1 17.4 0.00 0.00 0.00 66 1007.0
20260504040246 51 173 4.3 12.2 0.00 0.00 0.00 66 1007.0
20260504035255 51 224 4.3 10.4 0.00 0.00 0.00 65 1007.1
20260504034252 51 155 6.1 15.6 0.00 0.00 0.00 65 1007.1
20260504033252 52 205 4.3 12.2 0.00 0.00 0.00 65 1007.2
20260504032300 52 171 4.3 12.2 0.00 0.00 0.00 65 1007.2
20260504031254 52 156 4.3 15.6 0.00 0.00 0.00 65 1007.3
20260504030253 53 161 4.3 12.2 0.00 0.00 0.00 64 1007.4
20260504025257 53 163 3.5 12.2 0.00 0.00 0.00 64 1007.5
20260504024256 53 197 4.3 13.9 0.00 0.00 0.00 63 1007.6
20260504023250 53 180 4.3 12.2 0.00 0.00 0.00 63 1007.6
20260504022251 53 164 4.3 12.2 0.00 0.00 0.00 63 1007.8
20260504021251 53 166 3.5 13.9 0.00 0.00 0.00 63 1007.8
20260504020248 53 135 3.5 12.2 0.00 0.00 0.00 63 1007.8
20260504015247 53 207 4.3 9.6 0.00 0.00 0.00 63 1007.8
20260504014246 53 207 3.5 7.8 0.00 0.00 0.00 62 1007.6
20260504013246 53 161 3.5 9.6 0.00 0.00 0.00 62 1007.7
20260504012248 53 248 3.5 7.8 0.00 0.00 0.00 61 1007.6
20260504011248 54 202 3.5 7.8 0.00 0.00 0.00 60 1007.7
20260504010242 55 156 3.5 12.2 0.00 0.00 0.00 59 1007.7
20260504005239 55 190 3.5 10.4 0.00 0.00 0.00 59 1007.7
20260504004241 56 188 4.3 12.2 0.00 0.00 0.00 58 1007.6
20260504003242 56 210 3.5 12.2 0.00 0.00 0.00 57 1007.5
20260504002239 57 259 3.5 12.2 0.00 0.00 0.00 55 1007.4
20260504001241 57 210 3.5 9.6 0.00 0.00 0.00 53 1007.3
20260504000241 57 238 3.5 10.4 0.00 0.00 0.00 52 1007.3
20260503235240 58 217 3.5 10.4 0.00 0.00 0.00 50 1007.2
20260503234243 58 257 3.5 12.2 0.00 0.00 0.00 50 1007.2
20260503233236 58 242 3.5 10.4 0.00 0.00 0.00 50 1007.1
20260503232235 58 126 3.5 10.4 0.00 0.00 0.00 49 1007.1
20260503231237 59 172 3.5 15.6 0.00 0.00 0.00 48 1007.2
20260503230234 59 246 3.5 10.4 0.00 0.00 0.00 47 1007.3
20260503225233 59 269 3.5 12.2 0.00 0.00 0.00 46 1007.5
20260503224233 60 240 3.5 12.2 0.00 0.00 0.00 45 1007.5
20260503223235 60 292 4.3 25.2 0.00 0.00 0.00 45 1007.5
20260503222235 60 236 6.1 23.5 0.00 0.00 0.00 45 1007.5
20260503221235 61 266 4.3 17.4 0.00 0.00 0.00 45 1007.4
20260503220229 60 343 4.3 12.2 0.00 0.00 0.00 45 1007.6